Hourly Data Report for June 07, 2006

TORONTO CITY
ONTARIO

43°40'00.000" N
79°24'00.000" W
112.50 m
6158355
71508
XTO

Download Data

Hourly Data (June 2006)
Hourly Data Report for June 7, 2006
TIME
LST
Temp Definition
°C
Dew Point Definition
°C
Rel Hum Definition
%
Precip. Amount Definition
mm

Wind Dir Definition
10's deg

Wind Spd Definition
km/h
Visibility Definition
km
Stn Press Definition
kPa
Hmdx Definition


Wind Chill Definition


Weather Definition


00:00 17.1 9.4 60   LegendMM LegendMM   99.93     LegendNANA
01:00 16.7 9.1 61   LegendMM LegendMM   99.90     LegendNANA
02:00 17.8 7.8 52   LegendMM LegendMM   99.85     LegendNANA
03:00 17.8 8.0 53   LegendMM LegendMM   99.83     LegendNANA
04:00 16.1 9.3 64   LegendMM LegendMM   99.84     LegendNANA
05:00 16.4 9.8 65   LegendMM LegendMM   99.87     LegendNANA
06:00 17.1 9.4 60   LegendMM LegendMM   99.88     LegendNANA
07:00 19.0 10.1 56   LegendMM LegendMM   99.90     LegendNANA
08:00 21.0 11.1 53   LegendMM LegendMM   99.87     LegendNANA
09:00 21.1 11.6 55   LegendMM LegendMM   99.87     LegendNANA
10:00 21.7 9.9 47   LegendMM LegendMM   99.85     LegendNANA
11:00 22.6 10.6 47   LegendMM LegendMM   99.82     LegendNANA
12:00 25.7 11.5 41   LegendMM LegendMM   99.77 28   LegendNANA
13:00 25.8 11.5 41   LegendMM LegendMM   99.71 28   LegendNANA
14:00 24.8 11.8 44   LegendMM LegendMM   99.65 27   LegendNANA
15:00 26.7 11.2 38   LegendMM LegendMM   99.63 29   LegendNANA
16:00 24.3 14.3 54   LegendMM LegendMM   99.63 28   LegendNANA
17:00 22.7 12.6 53   LegendMM LegendMM   99.62 25   LegendNANA
18:00 23.1 11.9 49   LegendMM LegendMM   99.59 25   LegendNANA
19:00 22.7 9.6 43   LegendMM LegendMM   99.60     LegendNANA
20:00 21.7 9.4 45   LegendMM LegendMM   99.63     LegendNANA
21:00 21.3 11.1 52   LegendMM LegendMM   99.66     LegendNANA
22:00 20.8 11.5 55   LegendMM LegendMM   99.67     LegendNANA
23:00 20.8 11.9 57   LegendMM LegendMM   99.66     LegendNANA

Notes on Data Quality.

Legend

  • E = Estimated
  • M = Missing
  • NA = Not Available*
  • [empty] = Indicates an unobserved value
Date modified: